Hourly Data Report for May 14, 2021

MIRAMICHI RCS
NEW BRUNSWICK
Current Station Operator: ECCC - MSC

47°00'34.000" N
65°27'54.000" W
33.00 m
8100989
71744
ACQ

Download Data

Hourly Data (May 2021)
Hourly Data Report for May 14, 2021
TIME
LST
Temp Definition
°C
Dew Point Definition
°C
Rel Hum Definition
%
Precip. Amount Definition
mm

Wind Dir Definition
10's deg

Wind Spd Definition
km/h
Visibility Definition
km
Stn Press Definition
kPa
Hmdx Definition


Wind Chill Definition


Weather Definition


00:00 5.3 3.0 85 LegendMM 33 4   100.98     LegendNANA
01:00 3.2 2.3 93 LegendMM 29 5   101.00     LegendNANA
02:00 1.9 1.1 95 LegendMM 31 4   100.99     LegendNANA
03:00 1.9 0.9 93 LegendMM   0   100.99     LegendNANA
04:00 1.2 0.3 94 LegendMM 23 3   101.00     LegendNANA
05:00 0.9 -0.4 91 LegendMM 23 2   101.02     LegendNANA
06:00 4.3 1.7 83 LegendMM 24 5   101.07     LegendNANA
07:00 8.6 1.7 62 LegendMM 30 4   101.12     LegendNANA
08:00 11.1 1.5 51 LegendMM 32 13   101.14     LegendNANA
09:00 13.0 -1.7 36 LegendMM 32 16   101.14     LegendNANA
10:00 14.0 0.2 39 LegendMM 31 16   101.14     LegendNANA
11:00 14.9 1.2 39 LegendMM 31 12   101.15     LegendNANA
12:00 14.5 1.1 40 LegendMM 33 8   101.15     LegendNANA
13:00 11.3 6.7 74 LegendMM 7 21   101.18     LegendNANA
14:00 12.4 5.1 61 LegendMM 9 16   101.23     LegendNANA
15:00 13.9 2.4 46 LegendMM 7 13   101.23     LegendNANA
16:00 12.9 0.8 43 LegendMM 6 18   101.25     LegendNANA
17:00 12.5 2.5 50 LegendMM 6 19   101.28     LegendNANA
18:00 12.6 1.5 47 LegendMM 7 19   101.32     LegendNANA
19:00 11.0 0.9 50 LegendMM 11 14   101.40     LegendNANA
20:00 8.9 0.2 54 LegendMM 9 12   101.47     LegendNANA
21:00 6.9 -0.1 61 LegendMM 12 5   101.55     LegendNANA
22:00 6.0 0.3 67 LegendMM 2 5   101.59     LegendNANA
23:00 4.0 1.1 81 LegendMM 26 2   101.63     LegendNANA

Notes on Data Quality.

Legend

  • E = Estimated
  • M = Missing
  • NA = Not Available*
  • [empty] = Indicates an unobserved value
Date modified: